EDT,Max TemperatureF,Mean TemperatureF,Min TemperatureF,Max Dew PointF,MeanDew PointF,Min DewpointF,Max Humidity, Mean Humidity, Min Humidity, Max Sea Level PressureIn, Mean Sea Level PressureIn, Min Sea Level PressureIn, Max VisibilityMiles, Mean VisibilityMiles, Min VisibilityMiles, Max Wind SpeedMPH, Mean Wind SpeedMPH, Max Gust SpeedMPH,PrecipitationIn, CloudCover, Events, WindDirDegrees
2013-6-1,85,81,76,74,73,70,94,82,70,30.06,30.03,29.99,10,8,1,20,12,25,0.66,6,Rain,108
2013-6-2,86,80,73,75,73,70,94,80,65,30.00,29.96,29.91,10,9,2,18,7,24,0.37,4,Rain-Thunderstorm,158
2013-6-3,87,80,73,75,73,71,94,80,65,30.02,29.95,29.91,10,8,0,18,6,23,0.65,5,Fog-Rain,183
2013-6-4,83,78,73,74,71,66,94,76,58,30.05,30.01,29.96,10,10,10,16,4,20,0.01,6,Rain,210
2013-6-5,86,81,75,75,73,71,87,78,69,30.02,29.98,29.93,10,10,10,17,8,22,0.01,6,Rain,108
2013-6-6,80,77,73,76,73,69,93,86,79,29.93,29.81,29.74,10,7,1,22,13,30,2.02,5,Rain-Thunderstorm,153
2013-6-7,90,82,74,73,72,71,93,76,59,29.96,29.87,29.80,10,10,10,17,10,23,0.00,4,,217
2013-6-8,87,80,73,74,72,71,94,82,69,30.10,30.05,29.97,10,10,5,18,5,23,0.13,2,Rain,194
2013-6-9,86,79,72,75,73,71,94,80,65,30.13,30.10,30.06,10,10,10,21,8,26,0.00,1,,120
2013-6-10,87,83,78,75,74,73,91,81,70,30.11,30.08,30.04,10,10,10,20,9,24,0.00,2,Thunderstorm,132
2013-6-11,87,80,73,79,74,67,94,80,65,30.10,30.07,30.03,10,9,2,15,5,21,0.21,3,Rain-Thunderstorm,180
2013-6-12,89,81,72,76,72,69,93,76,59,30.09,30.06,30.02,10,10,10,15,5,21,T,1,,164
2013-6-13,91,82,73,73,71,69,87,70,52,30.04,29.99,29.92,10,10,9,16,7,21,T,1,Rain,210
2013-6-14,92,84,75,74,71,68,94,71,47,29.95,29.91,29.85,10,10,10,16,9,21,0.00,2,,252
2013-6-15,87,81,74,77,73,71,93,79,65,30.08,30.01,29.93,10,9,2,20,10,24,0.05,4,Rain-Thunderstorm,103
2013-6-16,87,83,79,75,74,73,79,72,65,30.10,30.08,30.04,10,10,5,20,11,24,0.00,3,,112
2013-6-17,93,86,78,76,74,70,85,67,49,30.10,30.05,30.00,10,10,10,18,8,22,0.00,2,,161
2013-6-18,93,85,76,75,72,69,88,67,46,30.08,30.03,29.97,10,10,10,21,9,25,T,2,Rain,178
2013-6-19,91,82,72,76,71,66,93,75,56,30.06,30.03,29.97,10,10,2,28,9,35,0.18,3,Rain-Thunderstorm,206
2013-6-20,89,81,73,75,72,66,93,77,61,30.11,30.08,30.03,10,8,0,23,5,32,1.16,4,Fog-Rain-Thunderstorm,159
2013-6-21,85,79,72,74,71,70,93,81,69,30.14,30.10,30.05,10,10,6,13,2,17,0.10,1,Rain-Thunderstorm,186
2013-6-22,87,80,72,75,72,70,93,77,61,30.14,30.10,30.07,10,10,5,13,6,17,0.00,0,,94
2013-6-23,87,82,76,74,73,70,85,73,61,30.16,30.13,30.08,10,10,10,16,7,20,0.00,3,Thunderstorm,107
2013-6-24,87,82,77,75,73,69,88,74,59,30.21,30.15,30.11,10,10,10,18,9,23,0.00,1,,109
2013-6-25,88,84,79,75,72,70,85,72,59,30.17,30.12,30.07,10,10,2,15,8,21,0.00,1,,107
2013-6-26,89,82,74,76,74,73,94,77,59,30.10,30.07,30.03,10,10,7,17,5,25,0.01,2,Rain-Thunderstorm,177
2013-6-27,90,82,73,75,72,70,94,75,55,30.06,30.01,29.96,10,10,6,17,6,21,0.03,2,Rain-Thunderstorm,166
2013-6-28,94,84,74,75,72,69,93,70,46,29.99,29.93,29.85,10,9,2,26,8,35,0.15,3,Rain-Thunderstorm,213
2013-6-29,93,84,74,75,72,71,94,72,49,29.89,29.86,29.83,10,10,2,20,9,26,0.14,2,Rain,205
2013-6-30,91,83,74,76,73,71,94,77,59,29.93,29.89,29.85,10,9,0,23,7,33,0.86,3,Fog-Rain-Thunderstorm,192